Location: La Oliva
(42.2466°N, 2.9955°E)
Time: 09:52:45
(UTC+00:00)

SPOT 5 - Pass Details

Date: 22 April 2021
Orbit: 624 x 814 km, 98.2° (Epoch: 10 May)

Event Time Altitude Azimuth Distance (km) Brightness Sun altitude
Exits shadow 21:14:08 58° 53° (NE) 804 3.0 -25.0°
Drops below altitude 10° 21:18:32 10° 354° (N) 2,199 6.1 -25.6°
Sets 21:20:53 0° 351° (N) 3,155 7.1 -25.9°
